Tracking 25612 objects as of 20-May-2022
HD Live streaming from Space Station
objects crossing your sky now

COSMOS 1247 DEB

Track COSMOS 1247 DEB now!


NORAD ID: 26786
Int'l Code: 1981-016J
Perigee: 3,413.1 km
Apogee: 36,171.2 km
Inclination: 67.9 °
Period: 701.9 minutes
Semi major axis: 26163 km
RCS: 0.4956 m2 (medium)
Launch date: February 19, 1981
Source: Commonwealth of Independent States (former USSR) (CIS)
Launch site: PLESETSK MISSILE AND SPACE COMPLEX (PKMTR)

Note: This is SATELLITE DEBRIS
aabbcc
Your satellite tracking list
Your tracking list is empty




NASA's NSSDC Master Catalog

Two Line Element Set (TLE):
1 26786U 81016J   22135.23500876  .00000309  00000-0  00000-0 0  9991
2 26786  67.9027 110.2415 6260348   6.1260 358.7261  2.05148338194101
Source of the keplerian elements: AFSPC